Flight Track Log - Related Links

Times and Time Zones

All times are in EDT time to prevent confusion due to time zone crossing. See the SWA3497 flight status page for this flight to view local times or setup timezone preferences in your user account.


Time Position Orientation Groundspeed Altitude Reporting Facility
EDT Latitude Longitude Course Direction KTS MPH feet Rate Location/Type
Thu 09:54:05 AM 38.9333 -77.5000 270° West 161 185 1,700  Level Potomac TRACON
Thu 09:55:05 AM 38.9333 -77.5833 270° West 218 251 4,100 2,215 Climbing Potomac TRACON
Thu 09:56:15 AM 38.9017 -77.6722 245° Southwest 266 306 6,500 2,908 Climbing Washington Center
Thu 09:57:15 AM 38.8897 -77.7625 260° West 266 306 10,400 3,580 Climbing Washington Center
Thu 09:58:14 AM 38.8769 -77.8794 262° West 292 336 13,600 3,450 Climbing Washington Center
Thu 09:59:15 AM 38.8894 -77.9892 278° West 309 356 17,300 2,281 Climbing Washington Center
Thu 10:00:15 AM 38.9247 -78.1025 292° West 324 373 18,200 800 Climbing Washington Center
Thu 10:01:15 AM 38.9575 -78.2236 289° West 342 394 18,900 706 Climbing Washington Center
Thu 10:02:14 AM 38.9653 -78.3414 275° West 342 394 19,600 1,714 Climbing Washington Center
Thu 10:03:14 AM 38.9689 -78.4644 272° West 342 394 22,300 2,579 Climbing Washington Center
Thu 10:04:15 AM 38.9719 -78.5928 272° West 353 406 24,800 2,380 Climbing Washington Center
Thu 10:05:15 AM 38.9769 -78.7211 273° West 376 433 27,100 2,350 Climbing Washington Center
Thu 10:06:15 AM 38.9817 -78.8522 273° West 371 427 29,500 2,400 Climbing Washington Center
Thu 10:07:15 AM 38.9844 -78.9778 272° West 361 415 31,900 2,017 Climbing Washington Center
Thu 10:08:14 AM 38.9853 -79.1008 271° West 361 415 33,500 3,076 Climbing Washington Center
Thu 10:09:14 AM 38.9875 -79.2317 271° West 361 415 38,000 1,388 Climbing Washington Center
Thu 10:10:15 AM 38.9919 -79.3600 273° West 361 415 36,300 -248 Descending Washington Center
Thu 10:11:15 AM 38.9961 -79.4911 272° West 366 421 37,500 850 Climbing Washington Center
Thu 10:12:15 AM 38.9986 -79.6061 272° West 366 421 38,000 250 Climbing Washington Center
Thu 10:13:15 AM 39.0028 -79.7319 272° West 366 421 38,000  Level Washington Center
Thu 10:14:15 AM 39.0025 -79.8575 270° West 366 421 38,000  Level Washington Center
Thu 10:15:15 AM 39.0061 -79.9833 272° West 361 415 38,000  Level Washington Center
Thu 10:16:31 AM 39.0058 -80.1444 270° West 356 410 38,000  Level Indianapolis Center
Thu 10:17:33 AM 39.0069 -80.2731 271° West 360 414 38,000  Level Indianapolis Center
Thu 10:18:35 AM 39.0092 -80.4028 271° West 363 418 38,000  Level Indianapolis Center
Thu 10:19:37 AM 39.0356 -80.5286 285° West 377 434 38,000  Level Indianapolis Center
Thu 10:20:39 AM 39.0981 -80.6733 299° West 387 445 38,000  Level Indianapolis Center
Thu 10:21:41 AM 39.1500 -80.7911 300° West 381 438 38,000  Level Indianapolis Center
Thu 10:22:43 AM 39.2036 -80.9094 300° West 384 442 38,000  Level Indianapolis Center
Thu 10:23:45 AM 39.2544 -81.0264 299° West 378 435 38,000  Level Indianapolis Center
Thu 10:24:47 AM 39.3072 -81.1425 300° West 377 434 38,000  Level Indianapolis Center
Thu 10:25:49 AM 39.3581 -81.2592 299° West 375 432 38,000  Level Indianapolis Center
Thu 10:26:51 AM 39.4197 -81.3992 300° West 374 430 38,000  Level Indianapolis Center
Thu 10:27:53 AM 39.4714 -81.5161 300° West 375 432 38,000  Level Indianapolis Center
Thu 10:29:00 AM 39.5294 -81.6386 302° West  Level FlightAware Approximate
Thu 10:29:57 AM 39.5739 -81.7558 302° West 383 441 38,000  Level Indianapolis Center
Thu 10:30:59 AM 39.6264 -81.8772 299° West 386 444 38,000  Level Indianapolis Center
Thu 10:32:01 AM 39.6794 -82.0000 299° West 390 449 38,000  Level Indianapolis Center
Thu 10:33:04 AM 39.7408 -82.1425 299° West 394 453 38,000  Level Indianapolis Center
Thu 10:34:06 AM 39.7936 -82.2669 299° West 391 450 38,000  Level Indianapolis Center
Thu 10:35:08 AM 39.8456 -82.3906 299° West 389 448 38,000  Level Indianapolis Center
Thu 10:36:10 AM 39.8986 -82.5144 299° West 389 448 38,000  Level Indianapolis Center
Thu 10:37:12 AM 39.9594 -82.6594 299° West 389 448 38,000  Level Indianapolis Center
Thu 10:38:14 AM 40.0117 -82.7822 299° West 385 443 38,000  Level Indianapolis Center
Thu 10:39:16 AM 40.0633 -82.9056 299° West 385 443 38,000  Level Indianapolis Center
Thu 10:40:18 AM 40.1142 -83.0303 298° West 388 447 38,000  Level Indianapolis Center
Thu 10:41:20 AM 40.1661 -83.1556 299° West 391 450 38,000  Level Indianapolis Center
Thu 10:42:22 AM 40.2178 -83.2811 298° West 392 451 38,000  Level Indianapolis Center
Thu 10:43:24 AM 40.2786 -83.4286 298° West 394 453 38,000 -145 Level Indianapolis Center
Thu 10:44:26 AM 40.3297 -83.5531 298° West 388 447 37,700 -581 Descending Indianapolis Center
Thu 10:45:28 AM 40.3808 -83.6775 298° West 387 445 36,800 -1,016 Descending Indianapolis Center
Thu 10:46:30 AM 40.4319 -83.8028 298° West 387 445 35,600 -1,790 Descending Indianapolis Center
Thu 10:47:32 AM 40.4814 -83.9264 298° West 382 440 33,100 -2,468 Descending Indianapolis Center
Thu 10:48:34 AM 40.5311 -84.0486 298° West 377 434 30,500 -1,512 Descending Indianapolis Center
Thu 10:49:35 AM 40.5781 -84.1683 297° West 365 420 30,000 -244 Descending Indianapolis Center
Thu 10:50:37 AM 40.6339 -84.3075 298° West 365 420 30,000  Level Indianapolis Center
Thu 10:51:39 AM 40.6808 -84.4272 297° West 367 422 30,000  Level Indianapolis Center
Thu 10:52:04 AM 40.6967 -84.4647 299° West 367 422 30,000  Level Chicago Center
Thu 10:53:06 AM 40.7431 -84.5825 297° West 366 421 30,000  Level Chicago Center
Thu 10:54:08 AM 40.7903 -84.7014 298° West 366 421 30,000  Level Chicago Center
Thu 10:55:10 AM 40.8608 -84.8356 305° West 369 425 30,000  Level Chicago Center
Thu 10:56:11 AM 40.9231 -84.9444 307° West 371 427 30,000  Level Chicago Center
Thu 10:57:13 AM 40.9847 -85.0539 307° West 372 428 30,000  Level Chicago Center
Thu 10:58:15 AM 41.0458 -85.1625 307° West 369 425 30,000 -97 Level Chicago Center
Thu 10:59:17 AM 41.1081 -85.2731 307° West 371 427 29,800 -864 Descending Chicago Center
Thu 11:00:20 AM 41.1678 -85.3808 306° West 365 420 28,200 -1,920 Descending Chicago Center
Thu 11:01:22 AM 41.2269 -85.4875 306° West 359 413 25,800 -1,935 Descending Chicago Center
Thu 11:02:24 AM 41.2947 -85.6086 307° West 341 392 24,200 -1,258 Descending Chicago Center
Thu 11:03:26 AM 41.3475 -85.7044 306° West 323 372 23,200 -1,016 Descending Chicago Center
Thu 11:04:28 AM 41.4006 -85.8008 306° West 321 369 22,100 -1,512 Descending Chicago Center
Thu 11:05:29 AM 41.4522 -85.8975 306° West 319 367 20,100 -1,951 Descending Chicago Center
Thu 11:06:31 AM 41.5050 -85.9931 306° West 320 368 18,100 -1,935 Descending Chicago Center
Thu 11:07:33 AM 41.5239 -86.0961 284° West 297 342 16,100 -1,935 Descending Chicago Center
Thu 11:08:35 AM 41.5239 -86.2053 270° West 293 337 14,100 -1,984 Descending Chicago Center
Thu 11:09:37 AM 41.5231 -86.3331 270° West 287 330 12,000 -1,854 Descending Chicago Center
Thu 11:10:38 AM 41.5219 -86.4456 269° West 301 346 10,300 -976 Descending Chicago Center
Thu 11:11:40 AM 41.5214 -86.5586 270° West 305 351 10,000 -145 Descending Chicago Center
Thu 11:12:42 AM 41.5208 -86.6700 270° West 302 348 10,000  Level Chicago Center
Thu 11:13:44 AM 41.5197 -86.7758 269° West 299 344 10,000 -823 Level Chicago Center
Thu 11:14:46 AM 41.5172 -86.8881 268° West 257 296 8,300 -1,597 Descending Chicago Center
Thu 11:15:48 AM 41.5186 -86.9833 271° West 256 295 6,700 -1,113 Descending Chicago Center
Thu 11:16:50 AM 41.5161 -87.0781 268° West 256 295 6,000 -585 Descending Chicago Center
Thu 11:17:51 AM 41.5164 -87.1686 270° West 249 287 5,500 -960 Descending Chicago Center
Thu 11:18:55 AM 41.5167 -87.2667 270° West 251 289 4,000 -726 Descending Chicago TRACON
Thu 11:19:55 AM 41.5500 -87.3500 298° West 236 272 4,000  Level Chicago TRACON
Thu 11:20:57 AM 41.5867 -87.4303 301° West 240 276 4,000  Level Chicago Center
Thu 11:21:59 AM 41.6186 -87.5083 299° West 240 276 4,000 -48 Level Chicago Center
Thu 11:23:01 AM 41.6589 -87.5756 309° West 236 272 3,900 -466 Descending Chicago Center
Thu 11:23:55 AM 41.7000 -87.6333 314° West 190 219 3,100 -900 Descending Chicago TRACON
Thu 11:25:01 AM 41.7333 -87.6833 312° West 143 165 2,100 -810 Descending Chicago TRACON
Thu 11:26:01 AM 41.7500 -87.7167 304° West 123 142 1,400 -700 Descending Chicago TRACON

Login

Don't have an account? Register now (free) for customized features, flight alerts, and more!